Regional Weather Roundup
Issued by NWS

Current Version | Previous Version | Text Only | Print | Product List | Glossary On
Versions: 1 2 3 4 5 6 7 8 9 10 11 12 13 14 15 16 17 18 19 20 21 22 23 24 25 26 27 28 29 30 31 32 33 34 35 36 37 38 39 40 41 42 43 44 45 46 47 48 49 50
000
ASUS46 KSTO 210315
RWRCA

NORTHERN AND CENTRAL CA REGIONAL WEATHER ROUNDUP
NATIONAL WEATHER SERVICE SACRAMENTO CA
700 PM PST SAT JAN 20 2018

NOTE: FAIR INDICATES FEW OR NO CLOUDS BELOW 12,000 FEET WITH NO
SIGNIFICANT WEATHER AND/OR OBSTRUCTIONS TO VISIBILITY.

CAZ001-003-210400-
NORTHWEST AREA

CITY           SKY/WX    TMP DP  RH WIND       PRES   REMARKS
CRESCENT CITY  CLOUDY    51  41  68 S9        30.23S
UKIAH          PTCLDY    44  37  76 CALM      30.24R
$$

CAZ006-505>513-210400-
BAY AREA

CITY           SKY/WX    TMP DP  RH WIND       PRES   REMARKS
SANTA ROSA     MOCLDY    48  38  68 NW8       30.21R
SAN RAFAEL     N/A       MM  MM  MM MISG
NAPA           PTCLDY    49  41  74 CALM      30.21R
CONCORD        CLEAR     52  40  63 CALM      30.22R
OAKLAND CITY   N/A       MM  MM  MM MISG
OAKLAND        PTCLDY    50  42  74 N3        30.23R
SAN FRAN CITY  N/A       51  MM  69 MISG
SAN FRAN ARPT  PTCLDY    51  42  71 W12       30.22R
LIVERMORE      CLEAR     48  40  73 CALM      30.21R
HAYWARD        PTCLDY    50  41  71 NW5       30.22R
REDWOOD CITY   N/A       49  MM  79 MISG
MOFFETT ARPT   PTCLDY    48  40  73 W6        30.23R
SAN JOSE ARPT  PTCLDY    51  41  68 W8        30.23R
$$
CAZ034-037-514>518-210400-
CENTRAL COAST

CITY           SKY/WX    TMP DP  RH WIND       PRES   REMARKS
WATSONVILLE    CLEAR     47  38  71 NW6       30.23R
SALINAS        CLEAR     49  43  80 NE5       30.22S
MONTEREY       CLEAR     52  43  71 W12       30.23R
SAN LUIS OBISP CLEAR     49  42  77 NW7       30.18R
SANTA MARIA    PTCLDY    46  42  86 W6        30.18R
$$
CAZ015-016-210400-
NORTHERN SACRAMENTO VALLEY

CITY           SKY/WX    TMP DP  RH WIND       PRES   REMARKS
REDDING        PTCLDY    45  35  68 CALM      30.19R
RED BLUFF      PTCLDY    44  33  65 W8        30.20R
OROVILLE       CLEAR     47  36  65 E3        30.19R
$$
CAZ016>018-210400-
SOUTHERN SACRAMENTO VALLEY

CITY           SKY/WX    TMP DP  RH WIND       PRES   REMARKS
AUBURN         CLEAR     37  34  87 CALM      30.17S
BEALE AFB      CLEAR     43  35  73 SE5       30.17R
LINCOLN        FAIR     N/A N/A N/A CALM      30.19R
MARYSVILLE     CLEAR     43  35  73 SW5       30.19R
SAC INTL ARPT  CLEAR     44  36  73 W6        30.19R
MATHER AIRPORT CLEAR     39  36  87 CALM      30.19R
DOWNTOWN SAC   N/A       47  MM  MM MISG
SAC EXEC ARPT  PTCLDY    45  36  70 W3        30.20R
VACAVILLE      CLEAR     45  36  70 CALM      30.21R
$$
CAZ019>021-210400-
SAN JOAQUIN VALLEY

CITY           SKY/WX    TMP DP  RH WIND       PRES   REMARKS
STOCKTON       CLEAR     47  36  65 NW6       30.20R
MODESTO        CLEAR     50  35  56 NW6       30.19S
MERCED         CLEAR     45  33  63 E3        30.20R
LEMOORE        CLEAR     43  37  79 SE6       30.23R
FRESNO         CLEAR     46  38  73 E3        30.23R
HANFORD        CLEAR     43  39  86 SE3       30.23R
PORTERVILLE    CLEAR     40  36  86 E3        30.23R
BAKERSFIELD    CLEAR     49  36  61 E5        30.21R
$$
CAZ011-012-071-210400-
NORTHERN MOUNTAINS

CITY           SKY/WX    TMP DP  RH WIND       PRES   REMARKS
YREKA          PTCLDY    36  25  64 CALM      30.19S
MOUNT SHASTA   PTCLDY    29  25  85 CALM      30.16S
ALTURAS        CLOUDY    31  26  82 NE3       30.16S
$$
CAZ011-012-071-210400-
SIERRA NEVADA MTNS

CITY           SKY/WX    TMP DP  RH WIND       PRES   REMARKS
BLUE CANYON    CLEAR     30  25  81 NE3       30.13R
TRUCKEE        PTCLDY    21  19  93 CALM      30.13R
TAHOE VLY ARPT PTCLDY    20  17  88 S3        30.10R
MAMMOTH LAKES  FAIR      20   8  59 W7        30.08R WCI  11
$$



USA.gov is the U.S. government's official web portal to all federal, state and local government web resources and services.